This demonstration page uses our WeatherBlox Daily Observations layout. Learn more.

Left ArrowRight Arrow

30.21309, -93.2044

Hourly Observations for December 6, 2022

Temp ( °F °C ) Dew Point ( °F °C ) Humidity (%) Winds ( mph kmh ) Pressure ( in mb ) Visibility ( mi km ) Precip ( " mm )
12:15 am 00:15 Mostly Cloudy with Mist and Fog 68 20.2 67 19.4 95 95 S 7 11 29.97 1015 4 6 0.00 0.00
12:35 am 00:35 Cloudy with Mist and Fog 68 20.2 67 19.4 95 95 S 6 9 29.96 1015 4 6 0.00 0.00
12:55 am 00:55 Cloudy with Mist and Fog 68 20 67 19.2 95 95 S 6 9 29.97 1015 7 11 0.00 0.00
1:15 am 01:15 Cloudy with Mist and Fog 69 20.3 67 19.5 95 95 SSW 7 11 29.97 1015 5 8 0.00 0.00
1:35 am 01:35 Cloudy with Mist and Fog 69 20.3 67 19.6 96 96 SSW 8 13 29.96 1015 5 8 0.00 0.00
1:55 am 01:55 Cloudy with Mist and Fog 68 20.2 67 19.4 95 95 S 6 9 29.97 1015 5 8 0.00 0.00
2:15 am 02:15 Cloudy with Mist and Fog 69 20.3 67 19.6 96 96 SSW 6 9 29.97 1015 7 11 0.00 0.00
2:35 am 02:35 Cloudy with Mist and Fog 68 20.1 67 19.3 95 95 SSW 5 7 29.97 1015 5 8 0.00 0.00
2:55 am 02:55 Mostly Cloudy with Mist and Fog 67 19.5 66 18.7 95 95 S 6 9 29.97 1015 4 6 0.00 0.00
3:15 am 03:15 Cloudy with Fog 64 17.9 63 17.1 95 95 S 3 6 29.97 1015 1 1 0.00 0.00
3:35 am 03:35 Cloudy with Fog 64 17.5 62 16.7 95 95 S 5 7 29.97 1015 0 0 0.00 0.00
3:55 am 03:55 Cloudy with Fog 63 17.4 62 16.7 96 96 S 3 6 29.97 1015 0 0 0.00 0.00
4:15 am 04:15 Cloudy with Fog 63 17.3 62 16.6 96 96 SSE 5 7 29.97 1015 0 0 0.00 0.00
4:35 am 04:35 Cloudy with Fog 64 17.7 63 17.1 96 96 SSE 6 9 29.97 1015 0 0 0.00 0.00
4:55 am 04:55 Cloudy with Fog 66 18.7 64 18 96 96 SSE 3 6 29.97 1015 0 0 0.00 0.00
5:15 am 05:15 Cloudy with Fog 65 18.6 64 17.9 96 96 S 3 6 29.97 1015 0 0 0.00 0.00
5:35 am 05:35 Cloudy with Fog 65 18.5 64 17.9 96 96 Calm 29.98 1015 0 0 0.00 0.00
6:00 am 06:00 Cloudy with Fog 64 18 63 17 94 94 S 6 9 29.99 1016 0 0 0.00 0.00
6:50 am 06:50 Mostly Clear with Fog 64 18 63 17 94 94 Calm 30.01 1016 0 0 0.00 0.00
7:53 am 07:53 Partly Cloudy with Mist and Fog 64 18 64 18 100 100 Calm 30.03 1017 3 5 0.00 0.00
8:55 am 08:55 Cloudy with Mist and Fog 70 21 68 20 94 94 Calm 30.05 1018 6 10 0.00 0.00
9:55 am 09:55 Mostly Cloudy 73 23 70 21 89 89 SSW 14 22 30.07 1018 7 11 0.00 0.00
10:55 am 10:55 Mostly Cloudy 79 26 70 21 74 74 SW 16 26 30.07 1018 10 16 0.00 0.00
11:47 am 11:47 Mostly Cloudy 81 27 68 20 66 66 SW 18 30 30.05 1018 10 16 0.00 0.00
12:52 pm 12:52 Mostly Cloudy 81 27 66 19 62 62 SSW 14 22 30.03 1017 10 16 0.00 0.00
1:49 pm 13:49 Mostly Cloudy 81 27 66 19 62 62 SW 20 31 30.02 1017 10 16 0.00 0.00
2:45 pm 14:45 Mostly Cloudy 79 26 66 19 65 65 SSW 16 26 30.02 1017 10 16 0.00 0.00
3:54 pm 15:54 Partly Cloudy 79 26 66 19 65 65 SSW 16 26 30.03 1017 10 16 0.00 0.00
4:53 pm 16:53 Partly Cloudy 75 24 68 20 78 78 SSW 10 17 30.04 1017 10 16 0.00 0.00
5:54 pm 17:54 Clear 72 22 66 19 83 83 S 6 9 30.05 1018 10 16 0.00 0.00
6:49 pm 18:49 Clear 66 19 64 18 94 94 S 7 11 30.07 1018 10 16 0.00 0.00
7:52 pm 19:52 Clear 68 20 66 19 94 94 S 6 9 30.08 1019 10 16 0.00 0.00
8:55 pm 20:55 Clear 64 18 64 18 100 100 S 6 9 30.09 1019 10 16 0.00 0.00
9:55 pm 21:55 Mostly Cloudy 64 18 64 18 100 100 S 5 7 30.11 1020 10 16 0.00 0.00
10:15 pm 22:15 Cloudy with Fog 63 17 61 16 94 94 S 6 9 30.11 1020 0 0 0.00 0.00
10:35 pm 22:35 Cloudy with Fog 62 16.9 61 16.2 96 96 S 6 9 30.12 1020 0 0 0.00 0.00
10:55 pm 22:55 Cloudy with Fog 63 17.2 62 16.5 96 96 S 5 7 30.12 1020 0 0 0.00 0.00
11:15 pm 23:15 Cloudy with Fog 64 17.7 63 17 96 96 S 5 7 30.12 1020 0 0 0.00 0.00
11:35 pm 23:35 Cloudy with Fog 65 18.3 64 17.6 96 96 S 3 6 30.13 1020 0 0 0.00 0.00
11:55 pm 23:55 Cloudy with Fog 65 18.6 64 17.9 96 96 S 3 6 30.13 1020 0 0 0.00 0.00

Powered by AerisWeather